STARLINK-1278, 45408

Orbit data source: Space-Track

STARLINK-1278, 45408 is a payload satellite owned by SpaceX/Seattle (US) in LEO that was launched on Wed, 18 Mar 2020 UTC via an FALCON 9 launch vehicle from the Air Force Eastern Test Range (AFETR). Payload-class satellites include a variety of spacecraft equipped with specific instruments for various scientific and technological missions. These include communications satellites like Starlink; space stations such as the ISS; scientific satellites like the Hubble; Earth observation satellites from companies like Planet Labs, Umbra, and HawkEye 360; GPS; miniature CubeSats for education and research; and military/defense satellites.

Not visible in the next 10 days
Identifier
45408, 2020-019BA
Orbit
LEO
Country
Flag of USUS
Related business
Manufacturer
SpaceX/Seattle
Mission
Partially operational Commercial Communications
Bus & Motor
STARLINK, Unknown motor
Mass
260 kg wet, ~248 kg dry
Launch date (UTC)
2020-03-18 (7 years ago)
Launch vehicle
FALCON 9
Launch site
Air Force Eastern Test Range (AFETR)
Object type
Payload
Rocket body
Debris
Shape & HBR
Box + 1 Pan, 10.1 m
Radar Cross Section
13.562 m², Large (>1 m²)

Expand to show TLE details & history
Last TLE update: 16 hours ago

TLE from 16 hours ago
0 STARLINK-1278
1 45408U 20019BA  26264.33336806  .01142886  68145-3  21142-2 0  9994
2 45408  53.0283 237.7736 0001125  77.7121 208.7690 16.00696089  6040
Epoch: 2026-09-21T08:00Z
TLE epoch observation values (Epoch: 2026-09-21T08:00:03.000Z)
Latitude
-50.18162°
Longitude
53.67426°
Altitude
290.423 km
Speed
7.733 km/s
True Right ascension
11h 35m 36s
True Declination
-50° 00' 02"
Sunlit
Object was in daylight at epoch
Visualization orbit readout
Latitude
Unknown
Longitude
Unknown
Altitude
Unknown
Speed
Unknown
Apparent Right ascension
Unknown
Apparent Declination
Unknown
Sunlit
N/A
Visualization observer readout
Local Sidereal Time
17:14:31
Azimuth
Unknown
Elevation
Unknown
Doppler factor
Unknown
Orbital elements
Apogee altitude
273.524 km
Perigee altitude
272.028 km
Semi-major axis
6,650.913 km
Eccentricity
0.00011
Inclination
53.0283°
RAAN
237.7736°
Arg. of periapsis
77.7121°
True anomaly
208.7628°
Mean anomaly
208.769°
Eccentric anomaly
208.7659°
Mean motion
4.00149 °/min
Orbital period
89.97 mins
BSTAR
0.0021142
Loading maneuver chart data...
Computing Atmospheric mass density...

Documentation

Showing up to 5 results
|